Regional Weather Roundup
Issued by NWS Midland/Odessa, TX

Skip options and go directly to product.
Home | Oldest Version | Next Version | Current Version | All | Text Only | Save Text | Print | Product List | Glossary On

Skip product version selection by date and time.   
621
ASUS44 KMAF 241701
RWRMAF
MIDLAND AREA WEATHER ROUNDUP
NATIONAL WEATHER SERVICE MIDLAND TX
1200 PM CDT SUN JUL 24 2016

...IN SOUTHWEST TEXAS AND SOUTHEAST NEW MEXICO...

CITY           SKY/WX    TMP DP  RH WIND       PRES   REMARKS
ALPINE         SUNNY     92  53  26 S3        30.16F
ANDREWS        FAIR      92  59  32 SE13G20   30.07S
ARTESIA        SUNNY     90  59  35 E9        30.06F
BIG SPRING     SUNNY     93  66  41 SE8       30.06S
CARLSBAD       SUNNY     92  57  30 E7        30.03S
DRYDEN           N/A     92  67  43 SE13G20   29.98S
FORT STOCKTON  SUNNY     94  62  34 E12       30.01F
GUAD PASS      SUNNY     88  52  29 NE10G16   30.19S
HOBBS          SUNNY     90  57  33 SE14      30.10R
MARFA          SUNNY     88  56  33 S12       30.16S
MIDLAND AIRPK  SUNNY     93  61  33 SE12G18   30.05F
MIDLAND INTL   SUNNY     94  62  34 SE14      30.04S
ODESSA         SUNNY     93  61  34 SE13      30.05S
PECOS          SUNNY     96  58  27 E10G16    29.97F
PRESIDIO       FAIR      96  56  26 SE5       29.98F
SEMINOLE       SUNNY     92  56  29 SE13G21   30.09S
SNYDER           N/A     90  66  45 S7        30.05S
WINK           SUNNY     91  64  40 SE9       30.00S
$$
...OTHER STATIONS IN TEXAS...

CITY           SKY/WX    TMP DP  RH WIND       PRES   REMARKS
ABILENE        SUNNY     93  68  43 SW9       30.01F
AMARILLO       SUNNY     93  58  30 S13       30.10S
AUSTIN         MOSUNNY   92  71  50 SW8       29.97S
BROWNSVILLE    MOSUNNY   93  74  53 SE16G23   29.94S HX 103
CORPUS CHRISTI PTSUNNY   92  77  61 SE15G21   29.94S HX 105
DALLAS FTW     MOSUNNY   94  69  44 VRB6      29.98S
DEL RIO        SUNNY     91  71  51 S7        29.93F
EL PASO        MOSUNNY   92  47  21 CALM      30.03F
HOUSTON INT    MOSUNNY   92  73  53 VRB3      29.98S HX 100
LUBBOCK        MOSUNNY   92  59  33 S10       30.08S
SAN ANGELO     SUNNY     93  68  43 S8        30.01S
SAN ANTONIO    MOSUNNY   89  71  55 SE8       29.99S
WACO           SUNNY     93  68  43 S8        29.98S
WICHITA FALLS  NOT AVBL
$$
...OTHER LOCATIONS IN NEW MEXICO...

CITY           SKY/WX    TMP DP  RH WIND       PRES   REMARKS
ALAMAGORDO     SUNNY     95  46  18 SW9       30.06F
ALBUQUERQUE    MOSUNNY   88  49  25 NW8       30.18S
CANNON AFB     SUNNY     91  56  30 SE13      30.14S
CLOVIS         SUNNY     90  57  33 SE9       30.14S
HOLLOMAN AFB   NOT AVBL
ROSWELL        SUNNY     92  55  28 SE13      30.06F
RUIDOSO          N/A     84  41  21 E14       30.31S
SANTA FE       SUNNY     86  50  28 N9        30.27S
TRUTH OR CONSE SUNNY     91  46  21 VRB6      30.11S
TUCUMCARI      SUNNY     93  52  24 VRB7G18   30.10S
$$

USA.gov is the U.S. government's official web portal to all federal, state and local government web resources and services.